Satellite: NOAA-11
Catalog number: 19531
Epoch time:      10229.83255473
Element set:    0183
Inclination:      098.7676 deg
RA of node:       317.8066 deg
Eccentricity:    0.0011471
Arg of perigee:   336.9709 deg
Mean anomaly:     023.0940 deg
Mean motion:   14.14931931 rev/day
Decay rate:      -2.41e-06 rev/day^2
Epoch rev:           12985
Checksum:              306

Satellite: NOAA-12
Catalog number: 21263
Epoch time:      10229.97211890
Element set:    0674
Inclination:      098.7649 deg
RA of node:       243.1248 deg
Eccentricity:    0.0012449
Arg of perigee:   351.9668 deg
Mean anomaly:     008.1316 deg
Mean motion:   14.25648944 rev/day
Decay rate:        2.8e-07 rev/day^2
Epoch rev:           00120
Checksum:              300

Satellite: MET-3/5
Catalog number: 21655
Epoch time:      10230.70257369
Element set:     891
Inclination:      082.5539 deg
RA of node:       264.4671 deg
Eccentricity:    0.0013269
Arg of perigee:   186.5737 deg
Mean anomaly:     173.5197 deg
Mean motion:   13.17021515 rev/day
Decay rate:        5.1e-07 rev/day^2
Epoch rev:           91390
Checksum:              308

Satellite: MET-2/21
Catalog number: 22782
Epoch time:      10229.97495912
Element set:    0860
Inclination:      082.5470 deg
RA of node:       203.4179 deg
Eccentricity:    0.0021037
Arg of perigee:   226.5813 deg
Mean anomaly:     133.3607 deg
Mean motion:   13.83645747 rev/day
Decay rate:       -5.0e-08 rev/day^2
Epoch rev:           85662
Checksum:              308

Satellite: OKEAN-4
Catalog number: 23317
Epoch time:      10229.79595068
Element set:     314
Inclination:      082.5412 deg
RA of node:       296.3586 deg
Eccentricity:    0.0023502
Arg of perigee:   042.4294 deg
Mean anomaly:     317.8723 deg
Mean motion:   14.82848301 rev/day
Decay rate:       1.44e-06 rev/day^2
Epoch rev:           85558
Checksum:              309

Satellite: NOAA-14
Catalog number: 23455
Epoch time:      10229.85464150
Element set:    0164
Inclination:      098.8758 deg
RA of node:       310.1613 deg
Eccentricity:    0.0010267
Arg of perigee:   062.8323 deg
Mean anomaly:     297.3899 deg
Mean motion:   14.13791522 rev/day
Decay rate:       -1.9e-07 rev/day^2
Epoch rev:           80621
Checksum:              303

Satellite: NOAA-15
Catalog number: 25338
Epoch time:      10230.37157681
Element set:     489
Inclination:      098.6238 deg
RA of node:       216.1962 deg
Eccentricity:    0.0009605
Arg of perigee:   253.3491 deg
Mean anomaly:     106.6655 deg
Mean motion:   14.24848425 rev/day
Decay rate:       -2.4e-07 rev/day^2
Epoch rev:           63760
Checksum:              313

Satellite: RESURS
Catalog number: 25394
Epoch time:      10229.82078672
Element set:     580
Inclination:      098.3045 deg
RA of node:       244.5449 deg
Eccentricity:    0.0002491
Arg of perigee:   054.1532 deg
Mean anomaly:     305.9873 deg
Mean motion:   14.24207838 rev/day
Decay rate:       -5.0e-08 rev/day^2
Epoch rev:           62912
Checksum:              298

Satellite: FENGYUN1
Catalog number: 25730
Epoch time:      10230.83096284
Element set:     115
Inclination:      098.7877 deg
RA of node:       194.1593 deg
Eccentricity:    0.0023421
Arg of perigee:   087.1532 deg
Mean anomaly:     273.2330 deg
Mean motion:   14.08249695 rev/day
Decay rate:       4.59e-06 rev/day^2
Epoch rev:           58050
Checksum:              300

Satellite: OKEAN-0
Catalog number: 25860
Epoch time:      10230.47667167
Element set:      75
Inclination:      097.8383 deg
RA of node:       201.0782 deg
Eccentricity:    0.0000632
Arg of perigee:   093.2857 deg
Mean anomaly:     266.8415 deg
Mean motion:   14.73655656 rev/day
Decay rate:        5.6e-07 rev/day^2
Epoch rev:           59607
Checksum:              315

Satellite: NOAA-16
Catalog number: 26536
Epoch time:      10230.34612962
Element set:     967
Inclination:      099.1697 deg
RA of node:       249.2777 deg
Eccentricity:    0.0010777
Arg of perigee:   158.6253 deg
Mean anomaly:     201.5382 deg
Mean motion:   14.12570925 rev/day
Decay rate:      -1.92e-06 rev/day^2
Epoch rev:           51060
Checksum:              313

Satellite: NOAA-17
Catalog number: 27453
Epoch time:      10229.75134905
Element set:    0959
Inclination:      098.4253 deg
RA of node:       277.7009 deg
Eccentricity:    0.0011016
Arg of perigee:   321.6063 deg
Mean anomaly:     038.4345 deg
Mean motion:   14.24181879 rev/day
Decay rate:        5.8e-07 rev/day^2
Epoch rev:           42346
Checksum:              308

Satellite: NOAA-18
Catalog number: 28654
Epoch time:      10229.76393479
Element set:    0445
Inclination:      098.9526 deg
RA of node:       175.8605 deg
Eccentricity:    0.0013484
Arg of perigee:   238.7114 deg
Mean anomaly:     121.2742 deg
Mean motion:   14.11381964 rev/day
Decay rate:       4.48e-06 rev/day^2
Epoch rev:           27012
Checksum:              321

